Printer-friendly version
Follow the MPC on Twitter Follow the MPC on Facebook The MPC blog
Minor Planet Center

MPEC 2010-N48 : COMET P/2010 N1 (WISE)

The following Minor Planet Electronic Circular may be linked-to from your own Web pages, but must not otherwise be redistributed electronically.

A form allowing access to any MPEC is at the bottom of this page.


Read MPEC 2010-N47 Read MPEC 2010-N49


M.P.E.C. 2010-N48                                Issued 2010 July 10, 20:00 UT

     The Minor Planet Electronic Circulars contain information on unusual
         minor planets and routine data on comets.  They are published
   on behalf of Commission 20 of the International Astronomical Union by the
          Minor Planet Center, Smithsonian Astrophysical Observatory,
                          Cambridge, MA 02138, U.S.A.

             Prepared using the Tamkin Foundation Computer Network

                              MPC@CFA.HARVARD.EDU
       URL http://www.minorplanetcenter.org/iau/mpc.html  ISSN 1523-6714

                            COMET P/2010 N1 (WISE)

Observations:
    PK10N010  C2010 04 13.25619 13 19 18.87 +19 26 02.4          19.4 N EN048703
    PK10N010  C2010 04 13.26303 13 19 18.58 +19 26 05.1          20.0 N EN048703
    PK10N010  C2010 04 13.26996 13 19 18.01 +19 26 10.3          20.4 N EN048703
    PK10N010  C2010 04 13.27696 13 19 17.68 +19 26 13.3          20.1 N EN048703
    PK10N010  C2010 05 08.26247 13 00 39.27 +20 29 33.0          19.1 N EN048703
    PK10N010  C2010 05 08.27078 13 00 39.02 +20 29 32.6          19.8 N EN048703
    PK10N010  C2010 05 08.27913 13 00 38.73 +20 29 30.5          19.6 N EN048703
    PK10N010  C2010 05 08.28745 13 00 38.44 +20 29 27.8          19.6 N EN048703
    PK10N010  C2010 05 18.15948 12 57 15.37 +19 31 10.9          20.2 N EN048703
    PK10N010  C2010 05 18.16571 12 57 15.26 +19 31 08.7          19.7 N EN048703
    PK10N010  C2010 05 18.17199 12 57 15.26 +19 31 04.5          19.4 N EN048703
    PK10N010  C2010 05 18.18017 12 57 14.97 +19 31 01.6          19.6 N EN048703
    PK10N010  S2010 07 05.47876 13 32 07.62 +06 26 19.2                 EN048C51
    PK10N010  s2010 07 05.47876 1 - 6730.2670 - 1085.1796 + 1126.8022   EN048C51
    PK10N010  S2010 07 05.61107 13 32 19.75 +06 23 25.2                 EN048C51
    PK10N010  s2010 07 05.61107 1 - 6728.0204 - 1100.7392 + 1124.4558   EN048C51
    PK10N010  S2010 07 05.74337 13 32 31.93 +06 20 30.3                 EN048C51
    PK10N010  s2010 07 05.74337 1 - 6725.5901 - 1116.2403 + 1123.7814   EN048C51
    PK10N010  S2010 07 05.87568 13 32 44.11 +06 17 36.1                 EN048C51
    PK10N010  s2010 07 05.87568 1 - 6723.1576 - 1131.5431 + 1123.7706   EN048C51
    PK10N010  S2010 07 06.00798 13 32 56.32 +06 14 42.2                 EN048C51
    PK10N010  s2010 07 06.00798 1 - 6720.5172 - 1147.2016 + 1122.6433   EN048C51
    PK10N010  S2010 07 06.14028 13 33 08.58 +06 11 46.7                 EN048C51
    PK10N010  s2010 07 06.14028 1 - 6717.9022 - 1162.7239 + 1120.8323   EN048C51
    PK10N010  S2010 07 06.27259 13 33 20.84 +06 08 51.7                 EN048C51
    PK10N010  s2010 07 06.27259 1 - 6715.3717 - 1177.8932 + 1120.3437   EN048C51
    PK10N010  S2010 07 06.33867 13 33 27.02 +06 07 23.4                 EN048C51
    PK10N010  s2010 07 06.33867 1 - 6719.7402 - 1192.0977 + 1079.4391   EN048C51
    PK10N010  S2010 07 06.47098 13 33 39.34 +06 04 29.1                 EN048C51
    PK10N010  s2010 07 06.47098 1 - 6717.3250 - 1207.4900 + 1078.8302   EN048C51
    PK10N010  S2010 07 06.53707 13 33 45.49 +06 03 02.2                 EN048C51
    PK10N010  s2010 07 06.53707 1 - 6721.3996 - 1221.7973 + 1036.6744   EN048C51
    PK10N010  S2010 07 06.60328 13 33 51.72 +06 01 34.0                 EN048C51
    PK10N010  s2010 07 06.60328 1 - 6714.7923 - 1223.0144 + 1076.5045   EN048C51
    PK10N010  S2010 07 06.66937 13 33 57.86 +06 00 06.5                 EN048C51
    PK10N010  s2010 07 06.66937 1 - 6718.7204 - 1237.3253 + 1034.9413   EN048C51
    PK10N010  S2010 07 06.73559 13 34 04.08 +05 58 38.4                 EN048C51
    PK10N010  s2010 07 06.73559 1 - 6712.0705 - 1238.4869 + 1075.7679   EN048C51
    PK10N010  S2010 07 06.80167 13 34 10.26 +05 57 11.3                 EN048C51
    PK10N010  s2010 07 06.80167 1 - 6715.9391 - 1252.7781 + 1034.8451   EN048C51
    PK10N010  S2010 07 06.86789 13 34 16.49 +05 55 42.6                 EN048C51
    PK10N010  s2010 07 06.86789 1 - 6709.3336 - 1253.7668 + 1075.8485   EN048C51
    PK10N010  S2010 07 06.93398 13 34 22.69 +05 54 14.8                 EN048C51
    PK10N010  s2010 07 06.93398 1 - 6713.1779 - 1267.9861 + 1034.7757   EN048C51
    PK10N010  S2010 07 07.00007 13 34 28.96 +05 52 47.7                 EN048C51
    PK10N010  s2010 07 07.00007 1 - 6716.6637 - 1282.5022 +  992.9310   EN048C51
    PK10N010  S2010 07 07.00019 13 34 28.95 +05 52 46.6                 EN048C51
    PK10N010  s2010 07 07.00019 1 - 6706.4198 - 1269.3382 + 1074.8447   EN048C51
    PK10N010  S2010 07 07.13237 13 34 41.39 +05 49 51.1                 EN048C51
    PK10N010  s2010 07 07.13237 1 - 6713.6785 - 1298.0428 +  991.0972   EN048C51
    PK10N010  S2010 07 07.39698 13 35 06.44 +05 43 59.6                 EN048C51
    PK10N010  s2010 07 07.39698 1 - 6708.1043 - 1328.5046 +  990.5826   EN048C51
    PK10N010  S2010 07 07.52928 13 35 19.00 +05 41 02.5                 EN048C51
    PK10N010  s2010 07 07.52928 1 - 6705.3862 - 1343.9645 +  988.3205   EN048C51
    PK10N010  S2010 07 07.66159 13 35 31.60 +05 38 06.2                 EN048C51
    PK10N010  s2010 07 07.66159 1 - 6702.4130 - 1359.4580 +  986.4985   EN048C51
    PK10N010  C2010 07 10.12511 13 39 31.13 +04 42 49.6          20.2 N EN048H21
    PK10N010  C2010 07 10.13669 13 39 32.26 +04 42 34.0          20.5 N EN048H21
    PK10N010  C2010 07 10.14827 13 39 33.39 +04 42 18.2          20.4 N EN048H21
    PK10N010  C2010 07 10.15985 13 39 34.52 +04 42 02.5          20.8 N EN048H21
    PK10N010  C2010 07 10.17250 13 39 35.75 +04 41 45.4          20.2 N EN048H21
    PK10N010  C2010 07 10.33315913 39 51.701+04 38 10.23         19.4 T EN048568
    PK10N010  C2010 07 10.33395013 39 51.779+04 38 09.19         19.6 T EN048568
    PK10N010  C2010 07 10.33474513 39 51.855+04 38 08.09         19.7 T EN048568
    PK10N010  C2010 07 10.33553813 39 51.933+04 38 07.04         19.6 T EN048568
    PK10N010  C2010 07 10.33633913 39 52.010+04 38 05.91         19.7 T EN048568
    PK10N010  C2010 07 10.33719713 39 52.101+04 38 04.75         19.7 T EN048568

Observer details:
568 Mauna Kea.  Observer J. Luthe.  Measurer D. J. Tholen.  3.6-m
    Canada-France-Hawaii Telescope.
H21 Astronomical Research Observatory, Westfield.  Observer R. Holmes.
    Measurer H. Devore.  0.61-m f/4.5 astrograph + CCD.
703 Catalina Sky Survey.  Observers E. C. Beshore, A. R. Gibbs, A. Boattini.
    Neasurers J. D. Ahern, E. C. Beshore, A. Boattini, A. R. Gibbs,
    A. D. Grauer, R. E. Hill, R. A. Kowalski, S. M. Larson.  0.68-m f/1.8
    Schmidt + CCD.
C51 WISE.  Measurers A. Mainzer, E. Wright, J. Bauer, T. Grav, J. Dailey, J.
    Masiero, R. Cutri, R. McMillan, R. Walker.
    (http://wise.ssl.berkeley.edu/mission_sci.html)

Orbital elements:
    P/2010 N1 (WISE)
Epoch 2010 Sept. 1.0 TT = JDT 2455440.5
T 2010 Aug. 16.15323 TT                                 MPC
q   1.4945194            (2000.0)            P               Q
n   0.17169881     Peri.  153.49663     -0.04713472     +0.97766538
a   3.2059582      Node   113.21000     -0.95146685     +0.01848364
e   0.5338307      Incl.   12.87647     -0.30412030     -0.20935318
P   5.74
Residuals in seconds of arc
100413 703  0.5+  0.1-    100705 C51  0.2+  0.2-    100707 C51  0.2-  0.3-
100413 703  1.6+  0.8-    100706 C51  0.0   0.5+    100707 C51  0.1-  0.6+
100413 703  1.2-  1.0+    100706 C51  0.1+  0.2-    100707 C51  0.2-  0.2-
100413 703  0.6-  0.6+    100706 C51  0.2-  0.2-    100707 C51  0.1-  0.1+
100508 703  0.3-  1.6-    100706 C51  0.3+  1.1-    100710 H21  0.3+  0.0
100508 703  0.1+  0.2-    100706 C51  0.2+  0.2-    100710 H21  0.3+  0.1+
100508 703  0.0   0.5-    100706 C51  0.1-  0.4+    100710 H21  0.3+  0.0
100508 703  0.2-  1.3-    100706 C51  0.5+  0.0     100710 H21  0.2+  0.0
100518 703  0.3+  0.5+    100706 C51  0.2-  0.1+    100710 H21  0.1+  0.1+
100518 703  0.1-  1.3+    100706 C51  0.1+  0.1-    100710 568  0.4-  0.1+
100518 703  1.1+  0.2+    100706 C51  0.2-  0.5+    100710 568  0.4-  0.2+
100518 703  1.4-  1.3+    100706 C51  0.0   0.2-    100710 568  0.4-  0.1+
100705 C51  0.3+  0.2-    100706 C51  0.2-  0.3-    100710 568  0.4-  0.2+
100705 C51  0.2+  0.0     100707 C51  0.5+  0.4+    100710 568  0.5-  0.1+
100705 C51  0.5+  0.6-    100707 C51  0.2+  0.4-    100710 568  0.3-  0.1+

Ephemeris:
    P/2010 N1 (WISE)
Date    TT    R. A. (2000) Decl.     Delta      r     Elong.  Phase   m1    m2
2010 07 03    13 28.43   +07 20.2    1.075    1.561    96.5    40.3  19.1
2010 07 13    13 44.40   +03 37.6    1.108    1.535    92.4    41.4  19.1
2010 07 23    14 03.06   -00 15.8    1.145    1.515    88.8    42.1  19.1
2010 08 02    14 24.15   -04 13.7    1.185    1.502    85.7    42.4  19.1
2010 08 12    14 47.51   -08 10.2    1.230    1.495    83.0    42.3  19.2
2010 08 22    15 13.00   -11 58.5    1.282    1.496    80.5    41.8  19.3

Brian G. Marsden             (C) Copyright 2010 MPC           M.P.E.C. 2010-N48

Read MPEC 2010-N47 Read MPEC 2010-N49


MPEC number:

Enter an MPEC number in one of the following forms:

  • 1997-B01 (the full form)
  • J97B01 (the packed version of the full form)
  • B01 (the abbreviated form)

Valid HTML 4.01!